Year,Month,Day,Hour,Minute,Value (Times are PST for temperature in C)
2011,08,16,00,00,10.90
2011,08,16,00,01,10.90
2011,08,16,00,02,10.80
2011,08,16,00,03,10.80
2011,08,16,00,04,10.80
2011,08,16,00,05,10.80
2011,08,16,00,06,10.80
2011,08,16,00,07,10.80
2011,08,16,00,08,10.80
2011,08,16,00,09,10.80
2011,08,16,00,10,10.70
2011,08,16,00,11,10.70
2011,08,16,00,12,10.70
2011,08,16,00,13,10.80
2011,08,16,00,14,10.80
2011,08,16,00,15,10.80
2011,08,16,00,16,10.80
2011,08,16,00,17,10.80
2011,08,16,00,18,10.80
2011,08,16,00,19,10.80
2011,08,16,00,20,10.80
2011,08,16,00,21,10.80
2011,08,16,00,22,10.80
2011,08,16,00,23,10.80
2011,08,16,00,24,10.80
2011,08,16,00,25,10.80
2011,08,16,00,26,10.80
2011,08,16,00,27,10.90
2011,08,16,00,28,10.90
2011,08,16,00,29,10.90
2011,08,16,00,30,10.90
2011,08,16,00,31,10.90
2011,08,16,00,32,10.90
2011,08,16,00,33,10.90
2011,08,16,00,34,10.90
2011,08,16,00,35,10.90
2011,08,16,00,36,11.00
2011,08,16,00,37,11.10
2011,08,16,00,38,11.10
2011,08,16,00,39,11.10
2011,08,16,00,40,11.10
2011,08,16,00,41,11.10
2011,08,16,00,42,11.10
2011,08,16,00,43,11.10
2011,08,16,00,44,11.10
2011,08,16,00,45,11.10
2011,08,16,00,46,11.10
2011,08,16,00,47,11.10
2011,08,16,00,48,11.00
2011,08,16,00,49,10.90
2011,08,16,00,50,10.90
2011,08,16,00,51,10.90
2011,08,16,00,52,10.90
2011,08,16,00,53,10.80
2011,08,16,00,54,10.80
2011,08,16,00,55,10.70
2011,08,16,00,56,10.70
2011,08,16,00,57,10.70
2011,08,16,00,58,10.60
2011,08,16,00,59,10.60
2011,08,16,01,00,10.60
2011,08,16,01,01,10.60
2011,08,16,01,02,10.60
2011,08,16,01,03,10.60
2011,08,16,01,04,10.60
2011,08,16,01,05,10.50
2011,08,16,01,06,10.40
2011,08,16,01,07,10.40
2011,08,16,01,08,10.30
2011,08,16,01,09,10.10
2011,08,16,01,10,10.00
2011,08,16,01,11,9.80
2011,08,16,01,12,9.70
2011,08,16,01,13,9.60
2011,08,16,01,14,9.40
2011,08,16,01,15,9.40
2011,08,16,01,16,9.30
2011,08,16,01,17,9.20
2011,08,16,01,18,9.20
2011,08,16,01,19,9.10
2011,08,16,01,20,9.10
2011,08,16,01,21,9.10
2011,08,16,01,22,9.00
2011,08,16,01,23,9.00
2011,08,16,01,24,8.90
2011,08,16,01,25,8.90
2011,08,16,01,26,8.80
2011,08,16,01,27,8.80
2011,08,16,01,28,8.80
2011,08,16,01,29,8.70
2011,08,16,01,30,8.70
2011,08,16,01,31,8.70
2011,08,16,01,32,8.70
2011,08,16,01,33,8.70
2011,08,16,01,34,8.70
2011,08,16,01,35,8.70
2011,08,16,01,36,8.70
2011,08,16,01,37,8.70
2011,08,16,01,38,8.70
2011,08,16,01,39,8.70
2011,08,16,01,40,8.70
2011,08,16,01,41,8.70
2011,08,16,01,42,8.70
2011,08,16,01,43,8.70
2011,08,16,01,44,8.70
2011,08,16,01,45,8.70
2011,08,16,01,46,8.70
2011,08,16,01,47,8.70
2011,08,16,01,48,8.70
2011,08,16,01,49,8.80
2011,08,16,01,50,8.80
2011,08,16,01,51,8.80
2011,08,16,01,52,8.80
2011,08,16,01,53,8.80
2011,08,16,01,54,8.90
2011,08,16,01,55,8.90
2011,08,16,01,56,8.90
2011,08,16,01,57,9.00
2011,08,16,01,58,9.00
2011,08,16,01,59,9.10
2011,08,16,02,00,9.10
2011,08,16,02,01,9.10
2011,08,16,02,02,9.10
2011,08,16,02,03,9.10
2011,08,16,02,04,9.10
2011,08,16,02,05,9.10
2011,08,16,02,06,9.10
2011,08,16,02,07,9.10
2011,08,16,02,08,9.10
2011,08,16,02,09,9.10
2011,08,16,02,10,9.00
2011,08,16,02,11,9.00
2011,08,16,02,12,8.90
2011,08,16,02,13,8.90
2011,08,16,02,14,8.80
2011,08,16,02,15,8.70
2011,08,16,02,16,8.70
2011,08,16,02,17,8.70
2011,08,16,02,18,8.70
2011,08,16,02,19,8.60
2011,08,16,02,20,8.60
2011,08,16,02,21,8.70
2011,08,16,02,22,8.70
2011,08,16,02,23,8.70
2011,08,16,02,24,8.70
2011,08,16,02,25,8.70
2011,08,16,02,26,8.70
2011,08,16,02,27,8.70
2011,08,16,02,28,8.70
2011,08,16,02,29,8.70
2011,08,16,02,30,8.60
2011,08,16,02,31,8.60
2011,08,16,02,32,8.50
2011,08,16,02,33,8.40
2011,08,16,02,34,8.40
2011,08,16,02,35,8.30
2011,08,16,02,36,8.30
2011,08,16,02,37,8.30
2011,08,16,02,38,8.30
2011,08,16,02,39,8.30
2011,08,16,02,40,8.30
2011,08,16,02,41,8.40
2011,08,16,02,42,8.40
2011,08,16,02,43,8.50
2011,08,16,02,44,8.50
2011,08,16,02,45,8.50
2011,08,16,02,46,8.50
2011,08,16,02,47,8.40
2011,08,16,02,48,8.40
2011,08,16,02,49,8.30
2011,08,16,02,50,8.30
2011,08,16,02,51,8.20
2011,08,16,02,52,8.20
2011,08,16,02,53,8.20
2011,08,16,02,54,8.20
2011,08,16,02,55,8.20
2011,08,16,02,56,8.10
2011,08,16,02,57,8.10
2011,08,16,02,58,8.10
2011,08,16,02,59,8.10
2011,08,16,03,00,8.10
2011,08,16,03,01,8.10
2011,08,16,03,02,8.10
2011,08,16,03,03,8.10
2011,08,16,03,04,8.10
2011,08,16,03,05,8.20
2011,08,16,03,06,8.20
2011,08,16,03,07,8.20
2011,08,16,03,08,8.20
2011,08,16,03,09,8.20
2011,08,16,03,10,8.10
2011,08,16,03,11,8.10
2011,08,16,03,12,8.10
2011,08,16,03,13,8.10
2011,08,16,03,14,8.10
2011,08,16,03,15,8.10
2011,08,16,03,16,8.10
2011,08,16,03,17,8.20
2011,08,16,03,18,8.20
2011,08,16,03,19,8.20
2011,08,16,03,20,8.20
2011,08,16,03,21,8.20
2011,08,16,03,22,8.20
2011,08,16,03,23,8.20
2011,08,16,03,24,8.20
2011,08,16,03,25,8.30
2011,08,16,03,26,8.30
2011,08,16,03,27,8.40
2011,08,16,03,28,8.40
2011,08,16,03,29,8.50
2011,08,16,03,30,8.50
2011,08,16,03,31,8.50
2011,08,16,03,32,8.60
2011,08,16,03,33,8.60
2011,08,16,03,34,8.60
2011,08,16,03,35,8.60
2011,08,16,03,36,8.60
2011,08,16,03,37,8.60
2011,08,16,03,38,8.60
2011,08,16,03,39,8.60
2011,08,16,03,40,8.50
2011,08,16,03,41,8.50
2011,08,16,03,42,8.40
2011,08,16,03,43,8.40
2011,08,16,03,44,8.40
2011,08,16,03,45,8.40
2011,08,16,03,46,8.30
2011,08,16,03,47,8.30
2011,08,16,03,48,8.30
2011,08,16,03,49,8.30
2011,08,16,03,50,8.30
2011,08,16,03,51,8.20
2011,08,16,03,52,8.20
2011,08,16,03,53,8.20
2011,08,16,03,54,8.20
2011,08,16,03,55,8.20
2011,08,16,03,56,8.20
2011,08,16,03,57,8.20
2011,08,16,03,58,8.20
2011,08,16,03,59,8.20
2011,08,16,04,00,8.20
2011,08,16,04,01,8.20
2011,08,16,04,02,8.20
2011,08,16,04,03,8.20
2011,08,16,04,04,8.20
2011,08,16,04,05,8.20
2011,08,16,04,06,8.20
2011,08,16,04,07,8.20
2011,08,16,04,08,8.30
2011,08,16,04,09,8.30
2011,08,16,04,10,8.40
2011,08,16,04,11,8.40
2011,08,16,04,12,8.50
2011,08,16,04,13,8.50
2011,08,16,04,14,8.50
2011,08,16,04,15,8.60
2011,08,16,04,16,8.60
2011,08,16,04,17,8.60
2011,08,16,04,18,8.60
2011,08,16,04,19,8.70
2011,08,16,04,20,8.70
2011,08,16,04,21,8.70
2011,08,16,04,22,8.70
2011,08,16,04,23,8.70
2011,08,16,04,24,8.70
2011,08,16,04,25,8.70
2011,08,16,04,26,8.70
2011,08,16,04,27,8.70
2011,08,16,04,28,8.70
2011,08,16,04,29,8.70
2011,08,16,04,30,8.70
2011,08,16,04,31,8.70
2011,08,16,04,32,8.50
2011,08,16,04,33,8.50
2011,08,16,04,34,8.40
2011,08,16,04,35,8.40
2011,08,16,04,36,8.40
2011,08,16,04,37,8.40
2011,08,16,04,38,8.40
2011,08,16,04,39,8.40
2011,08,16,04,40,8.40
2011,08,16,04,41,8.40
2011,08,16,04,42,8.30
2011,08,16,04,43,8.30
2011,08,16,04,44,8.30
2011,08,16,04,45,8.30
2011,08,16,04,46,8.20
2011,08,16,04,47,8.20
2011,08,16,04,48,8.20
2011,08,16,04,49,8.20
2011,08,16,04,50,8.20
2011,08,16,04,51,8.20
2011,08,16,04,52,8.20
2011,08,16,04,53,8.20
2011,08,16,04,54,8.20
2011,08,16,04,55,8.20
2011,08,16,04,56,8.20
2011,08,16,04,57,8.30
2011,08,16,04,58,8.30
2011,08,16,04,59,8.30
2011,08,16,05,00,8.30
2011,08,16,05,01,8.40
2011,08,16,05,02,8.40
2011,08,16,05,03,8.40
2011,08,16,05,04,8.40
2011,08,16,05,05,8.40
2011,08,16,05,06,8.40
2011,08,16,05,07,8.40
2011,08,16,05,08,8.40
2011,08,16,05,09,8.40
2011,08,16,05,10,8.30
2011,08,16,05,11,8.30
2011,08,16,05,12,8.30
2011,08,16,05,13,8.30
2011,08,16,05,14,8.30
2011,08,16,05,15,8.30
2011,08,16,05,16,8.30
2011,08,16,05,17,8.40
2011,08,16,05,18,8.40
2011,08,16,05,19,8.50
2011,08,16,05,20,8.50
2011,08,16,05,21,8.50
2011,08,16,05,22,8.50
2011,08,16,05,23,8.50
2011,08,16,05,24,8.50
2011,08,16,05,25,8.50
2011,08,16,05,26,8.60
2011,08,16,05,27,8.60
2011,08,16,05,28,8.60
2011,08,16,05,29,8.60
2011,08,16,05,30,8.60
2011,08,16,05,31,8.60
2011,08,16,05,32,8.60
2011,08,16,05,33,8.60
2011,08,16,05,34,8.50
2011,08,16,05,35,8.40
2011,08,16,05,36,8.30
2011,08,16,05,37,8.20
2011,08,16,05,38,8.00
2011,08,16,05,39,8.00
2011,08,16,05,40,7.90
2011,08,16,05,41,7.90
2011,08,16,05,42,7.90
2011,08,16,05,43,7.90
2011,08,16,05,44,7.90
2011,08,16,05,45,7.90
2011,08,16,05,46,7.90
2011,08,16,05,47,7.90
2011,08,16,05,48,7.90
2011,08,16,05,49,7.90
2011,08,16,05,50,7.80
2011,08,16,05,51,7.80
2011,08,16,05,52,7.80
2011,08,16,05,53,7.80
2011,08,16,05,54,7.80
2011,08,16,05,55,7.80
2011,08,16,05,56,7.80
2011,08,16,05,57,7.80
2011,08,16,05,58,7.80
2011,08,16,05,59,7.90
2011,08,16,06,00,8.00
2011,08,16,06,01,8.00
2011,08,16,06,02,8.10
2011,08,16,06,03,8.20
2011,08,16,06,04,8.30
2011,08,16,06,05,8.30
2011,08,16,06,06,8.40
2011,08,16,06,07,8.50
2011,08,16,06,08,8.50
2011,08,16,06,09,8.60
2011,08,16,06,10,8.60
2011,08,16,06,11,8.60
2011,08,16,06,12,8.60
2011,08,16,06,13,8.60
2011,08,16,06,14,8.60
2011,08,16,06,15,8.60
2011,08,16,06,16,8.50
2011,08,16,06,17,8.50
2011,08,16,06,18,8.50
2011,08,16,06,19,8.50
2011,08,16,06,20,8.50
2011,08,16,06,21,8.50
2011,08,16,06,22,8.50
2011,08,16,06,23,8.40
2011,08,16,06,24,8.30
2011,08,16,06,25,8.20
2011,08,16,06,26,8.10
2011,08,16,06,27,7.90
2011,08,16,06,28,7.80
2011,08,16,06,29,7.80
2011,08,16,06,30,7.80
2011,08,16,06,31,7.70
2011,08,16,06,32,7.60
2011,08,16,06,33,7.60
2011,08,16,06,34,7.60
2011,08,16,06,35,7.50
2011,08,16,06,36,7.50
2011,08,16,06,37,7.50
2011,08,16,06,38,7.50
2011,08,16,06,39,7.40
2011,08,16,06,40,7.40
2011,08,16,06,41,7.40
2011,08,16,06,42,7.40
2011,08,16,06,43,7.40
2011,08,16,06,44,7.50
2011,08,16,06,45,7.50
2011,08,16,06,46,7.50
2011,08,16,06,47,7.50
2011,08,16,06,48,7.50
2011,08,16,06,49,7.50
2011,08,16,06,50,7.50
2011,08,16,06,51,7.50
2011,08,16,06,52,7.40
2011,08,16,06,53,7.40
2011,08,16,06,54,7.40
2011,08,16,06,55,7.40
2011,08,16,06,56,7.40
2011,08,16,06,57,7.40
2011,08,16,06,58,7.30
2011,08,16,06,59,7.30
2011,08,16,07,00,7.30
2011,08,16,07,01,7.30
2011,08,16,07,02,7.30
2011,08,16,07,03,7.30
2011,08,16,07,04,7.30
2011,08,16,07,05,7.30
2011,08,16,07,06,7.30
2011,08,16,07,07,7.30
2011,08,16,07,08,7.30
2011,08,16,07,09,7.30
2011,08,16,07,10,7.30
2011,08,16,07,11,7.30
2011,08,16,07,12,7.30
2011,08,16,07,13,7.40
2011,08,16,07,14,7.50
2011,08,16,07,15,7.50
2011,08,16,07,16,7.60
2011,08,16,07,17,7.70
2011,08,16,07,18,7.80
2011,08,16,07,19,7.90
2011,08,16,07,20,8.00
2011,08,16,07,21,8.10
2011,08,16,07,22,8.20
2011,08,16,07,23,8.40
2011,08,16,07,24,8.60
2011,08,16,07,25,8.80
2011,08,16,07,26,9.00
2011,08,16,07,27,9.30
2011,08,16,07,28,9.50
2011,08,16,07,29,9.70
2011,08,16,07,30,9.80
2011,08,16,07,31,10.00
2011,08,16,07,32,10.20
2011,08,16,07,33,10.30
2011,08,16,07,34,10.50
2011,08,16,07,35,10.60
2011,08,16,07,36,10.70
2011,08,16,07,37,10.80
2011,08,16,07,38,11.00
2011,08,16,07,39,11.10
2011,08,16,07,40,11.20
2011,08,16,07,41,11.30
2011,08,16,07,42,11.40
2011,08,16,07,43,11.40
2011,08,16,07,44,11.50
2011,08,16,07,45,11.60
2011,08,16,07,46,11.70
2011,08,16,07,47,11.70
2011,08,16,07,48,11.80
2011,08,16,07,49,11.80
2011,08,16,07,50,11.80
2011,08,16,07,51,11.90
2011,08,16,07,52,12.00
2011,08,16,07,53,12.00
2011,08,16,07,54,12.10
2011,08,16,07,55,12.10
2011,08,16,07,56,12.20
2011,08,16,07,57,12.20
2011,08,16,07,58,12.30
2011,08,16,07,59,12.30
2011,08,16,08,00,12.40
2011,08,16,08,01,12.40
2011,08,16,08,02,12.50
2011,08,16,08,03,12.50
2011,08,16,08,04,12.60
2011,08,16,08,05,12.60
2011,08,16,08,06,12.70
2011,08,16,08,07,12.70
2011,08,16,08,08,12.80
2011,08,16,08,09,12.80
2011,08,16,08,10,12.80
2011,08,16,08,11,12.80
2011,08,16,08,12,12.90
2011,08,16,08,13,13.00
2011,08,16,08,14,13.00
2011,08,16,08,15,13.10
2011,08,16,08,16,13.20
2011,08,16,08,17,13.20
2011,08,16,08,18,13.30
2011,08,16,08,19,13.30
2011,08,16,08,20,13.30
2011,08,16,08,21,13.40
2011,08,16,08,22,13.40
2011,08,16,08,23,13.50
2011,08,16,08,24,13.50
2011,08,16,08,25,13.50
2011,08,16,08,26,13.50
2011,08,16,08,27,13.50
2011,08,16,08,28,13.60
2011,08,16,08,29,13.60
2011,08,16,08,30,13.60
2011,08,16,08,31,13.60
2011,08,16,08,32,13.70
2011,08,16,08,33,13.70
2011,08,16,08,34,13.70
2011,08,16,08,35,13.70
2011,08,16,08,36,13.80
2011,08,16,08,37,13.80
2011,08,16,08,38,13.90
2011,08,16,08,39,13.90
2011,08,16,08,40,14.00
2011,08,16,08,41,14.00
2011,08,16,08,42,14.00
2011,08,16,08,43,14.10
2011,08,16,08,44,14.10
2011,08,16,08,45,14.20
2011,08,16,08,46,14.20
2011,08,16,08,47,14.20
2011,08,16,08,48,14.20
2011,08,16,08,49,14.20
2011,08,16,08,50,14.30
2011,08,16,08,51,14.30
2011,08,16,08,52,14.40
2011,08,16,08,53,14.40
2011,08,16,08,54,14.50
2011,08,16,08,55,14.50
2011,08,16,08,56,14.60
2011,08,16,08,57,14.60
2011,08,16,08,58,14.60
2011,08,16,08,59,14.60
2011,08,16,09,00,14.70
2011,08,16,09,01,14.70
2011,08,16,09,02,14.70
2011,08,16,09,03,14.80
2011,08,16,09,04,14.80
2011,08,16,09,05,14.80
2011,08,16,09,06,14.80
2011,08,16,09,07,14.80
2011,08,16,09,08,14.80
2011,08,16,09,09,14.80
2011,08,16,09,10,14.80
2011,08,16,09,11,14.80
2011,08,16,09,12,14.90
2011,08,16,09,13,14.90
2011,08,16,09,14,15.00
2011,08,16,09,15,15.00
2011,08,16,09,16,15.00
2011,08,16,09,17,15.00
2011,08,16,09,18,15.00
2011,08,16,09,19,15.00
2011,08,16,09,20,14.90
2011,08,16,09,21,14.80
2011,08,16,09,22,14.70
2011,08,16,09,23,14.60
2011,08,16,09,24,14.60
2011,08,16,09,25,14.60
2011,08,16,09,26,14.60
2011,08,16,09,27,14.60
2011,08,16,09,28,14.60
2011,08,16,09,29,14.60
2011,08,16,09,30,14.60
2011,08,16,09,31,14.60
2011,08,16,09,32,14.70
2011,08,16,09,33,14.70
2011,08,16,09,34,14.70
2011,08,16,09,35,14.70
2011,08,16,09,36,14.70
2011,08,16,09,37,14.60
2011,08,16,09,38,14.60
2011,08,16,09,39,14.70
2011,08,16,09,40,14.70
2011,08,16,09,41,14.80
2011,08,16,09,42,14.80
2011,08,16,09,43,14.90
2011,08,16,09,44,14.90
2011,08,16,09,45,15.00
2011,08,16,09,46,15.00
2011,08,16,09,47,15.00
2011,08,16,09,48,15.10
2011,08,16,09,49,15.20
2011,08,16,09,50,15.30
2011,08,16,09,51,15.40
2011,08,16,09,52,15.50
2011,08,16,09,53,15.50
2011,08,16,09,54,15.60
2011,08,16,09,55,15.80
2011,08,16,09,56,15.80
2011,08,16,09,57,15.90
2011,08,16,09,58,16.00
2011,08,16,09,59,16.10
2011,08,16,10,00,16.10
2011,08,16,10,01,16.10
2011,08,16,10,02,16.10
2011,08,16,10,03,16.10
2011,08,16,10,04,16.10
2011,08,16,10,05,16.10
2011,08,16,10,06,16.00
2011,08,16,10,07,15.90
2011,08,16,10,08,15.80
2011,08,16,10,09,15.90
2011,08,16,10,10,16.00
2011,08,16,10,11,16.10
2011,08,16,10,12,16.10
2011,08,16,10,13,16.10
2011,08,16,10,14,16.10
2011,08,16,10,15,16.10
2011,08,16,10,16,16.10
2011,08,16,10,17,16.10
2011,08,16,10,18,16.10
2011,08,16,10,19,15.90
2011,08,16,10,20,15.90
2011,08,16,10,21,15.90
2011,08,16,10,22,15.90
2011,08,16,10,23,15.80
2011,08,16,10,24,15.80
2011,08,16,10,25,15.90
2011,08,16,10,26,15.90
2011,08,16,10,27,15.90
2011,08,16,10,28,15.80
2011,08,16,10,29,15.80
2011,08,16,10,30,15.90
2011,08,16,10,31,16.00
2011,08,16,10,32,16.10
2011,08,16,10,33,16.20
2011,08,16,10,34,16.20
2011,08,16,10,35,16.20
2011,08,16,10,36,16.10
2011,08,16,10,37,16.10
2011,08,16,10,38,16.10
2011,08,16,10,39,16.20
2011,08,16,10,40,16.30
2011,08,16,10,41,16.40
2011,08,16,10,42,16.40
2011,08,16,10,43,16.40
2011,08,16,10,44,16.30
2011,08,16,10,45,16.30
2011,08,16,10,46,16.30
2011,08,16,10,47,16.30
2011,08,16,10,48,16.40
2011,08,16,10,49,16.40
2011,08,16,10,50,16.60
2011,08,16,10,51,16.70
2011,08,16,10,52,16.70
2011,08,16,10,53,16.80
2011,08,16,10,54,16.90
2011,08,16,10,55,16.90
2011,08,16,10,56,17.00
2011,08,16,10,57,17.10
2011,08,16,10,58,17.20
2011,08,16,10,59,17.20
2011,08,16,11,00,17.20
2011,08,16,11,01,17.20
2011,08,16,11,02,17.30
2011,08,16,11,03,17.30
2011,08,16,11,04,17.30
2011,08,16,11,05,17.30
2011,08,16,11,06,17.30
2011,08,16,11,07,17.40
2011,08,16,11,08,17.40
2011,08,16,11,09,17.50
2011,08,16,11,10,17.60
2011,08,16,11,11,17.60
2011,08,16,11,12,17.70
2011,08,16,11,13,17.70
2011,08,16,11,14,17.70
2011,08,16,11,15,17.70
2011,08,16,11,16,17.70
2011,08,16,11,17,17.70
2011,08,16,11,18,17.70
2011,08,16,11,19,17.60
2011,08,16,11,20,17.50
2011,08,16,11,21,17.50
2011,08,16,11,22,17.40
2011,08,16,11,23,17.30
2011,08,16,11,24,17.20
2011,08,16,11,25,17.20
2011,08,16,11,26,17.10
2011,08,16,11,27,17.10
2011,08,16,11,28,17.10
2011,08,16,11,29,17.20
2011,08,16,11,30,17.20
2011,08,16,11,31,17.20
2011,08,16,11,32,17.10
2011,08,16,11,33,17.10
2011,08,16,11,34,17.10
2011,08,16,11,35,17.20
2011,08,16,11,36,17.20
2011,08,16,11,37,17.10
2011,08,16,11,38,17.00
2011,08,16,11,39,17.00
2011,08,16,11,40,17.00
2011,08,16,11,41,17.00
2011,08,16,11,42,17.00
2011,08,16,11,43,17.00
2011,08,16,11,44,17.10
2011,08,16,11,45,17.20
2011,08,16,11,46,17.10
2011,08,16,11,47,17.10
2011,08,16,11,48,17.00
2011,08,16,11,49,17.00
2011,08,16,11,50,17.00
2011,08,16,11,51,17.00
2011,08,16,11,52,17.00
2011,08,16,11,53,17.00
2011,08,16,11,54,17.00
2011,08,16,11,55,17.10
2011,08,16,11,56,17.00
2011,08,16,11,57,17.00
2011,08,16,11,58,17.00
2011,08,16,11,59,17.10
2011,08,16,12,00,17.10
2011,08,16,12,01,17.10
2011,08,16,12,02,17.20
2011,08,16,12,03,17.20
2011,08,16,12,04,17.30
2011,08,16,12,05,17.40
2011,08,16,12,06,17.60
2011,08,16,12,07,17.70
2011,08,16,12,08,17.80
2011,08,16,12,09,17.90
2011,08,16,12,10,18.10
2011,08,16,12,11,18.20
2011,08,16,12,12,18.30
2011,08,16,12,13,18.40
2011,08,16,12,14,18.50
2011,08,16,12,15,18.50
2011,08,16,12,16,18.50
2011,08,16,12,17,18.40
2011,08,16,12,18,18.20
2011,08,16,12,19,18.20
2011,08,16,12,20,18.10
2011,08,16,12,21,18.00
2011,08,16,12,22,18.00
2011,08,16,12,23,18.10
2011,08,16,12,24,18.20
2011,08,16,12,25,18.20
2011,08,16,12,26,18.30
2011,08,16,12,27,18.30
2011,08,16,12,28,18.40
2011,08,16,12,29,18.50
2011,08,16,12,30,18.40
2011,08,16,12,31,18.50
2011,08,16,12,32,18.50
2011,08,16,12,33,18.50
2011,08,16,12,34,18.60
2011,08,16,12,35,18.70
2011,08,16,12,36,18.80
2011,08,16,12,37,18.90
2011,08,16,12,38,18.90
2011,08,16,12,39,18.90
2011,08,16,12,40,18.90
2011,08,16,12,41,18.90
2011,08,16,12,42,18.90
2011,08,16,12,43,19.00
2011,08,16,12,44,19.10
2011,08,16,12,45,19.10
2011,08,16,12,46,19.20
2011,08,16,12,47,19.20
2011,08,16,12,48,19.20
2011,08,16,12,49,19.10
2011,08,16,12,50,19.10
2011,08,16,12,51,18.90
2011,08,16,12,52,18.90
2011,08,16,12,53,18.90
2011,08,16,12,54,18.80
2011,08,16,12,55,18.80
2011,08,16,12,56,18.70
2011,08,16,12,57,18.70
2011,08,16,12,58,18.70
2011,08,16,12,59,18.70
2011,08,16,13,00,18.60
2011,08,16,13,01,18.60
2011,08,16,13,02,18.50
2011,08,16,13,03,18.50
2011,08,16,13,04,18.50
2011,08,16,13,05,18.50
2011,08,16,13,06,18.60
2011,08,16,13,07,18.70
2011,08,16,13,08,18.80
2011,08,16,13,09,18.90
2011,08,16,13,10,18.90
2011,08,16,13,11,18.90
2011,08,16,13,12,19.00
2011,08,16,13,13,19.10
2011,08,16,13,14,19.10
2011,08,16,13,15,19.10
2011,08,16,13,16,19.10
2011,08,16,13,17,19.10
2011,08,16,13,18,19.10
2011,08,16,13,19,19.00
2011,08,16,13,20,18.90
2011,08,16,13,21,18.90
2011,08,16,13,22,18.90
2011,08,16,13,23,18.90
2011,08,16,13,24,19.00
2011,08,16,13,25,19.10
2011,08,16,13,26,19.10
2011,08,16,13,27,19.10
2011,08,16,13,28,19.10
2011,08,16,13,29,19.10
2011,08,16,13,30,19.10
2011,08,16,13,31,19.10
2011,08,16,13,32,19.10
2011,08,16,13,33,19.10
2011,08,16,13,34,19.10
2011,08,16,13,35,19.10
2011,08,16,13,36,19.20
2011,08,16,13,37,19.30
2011,08,16,13,38,19.40
2011,08,16,13,39,19.40
2011,08,16,13,40,19.50
2011,08,16,13,41,19.60
2011,08,16,13,42,19.60
2011,08,16,13,43,19.60
2011,08,16,13,44,19.60
2011,08,16,13,45,19.60
2011,08,16,13,46,19.60
2011,08,16,13,47,19.60
2011,08,16,13,48,19.70
2011,08,16,13,49,19.70
2011,08,16,13,50,19.70
2011,08,16,13,51,19.80
2011,08,16,13,52,19.90
2011,08,16,13,53,19.90
2011,08,16,13,54,19.90
2011,08,16,13,55,19.90
2011,08,16,13,56,19.90
2011,08,16,13,57,20.00
2011,08,16,13,58,20.10
2011,08,16,13,59,20.20
2011,08,16,14,00,20.10
2011,08,16,14,01,20.00
2011,08,16,14,02,19.90
2011,08,16,14,03,19.80
2011,08,16,14,04,19.70
2011,08,16,14,05,19.60
2011,08,16,14,06,19.60
2011,08,16,14,07,19.60
2011,08,16,14,08,19.60
2011,08,16,14,09,19.60
2011,08,16,14,10,19.60
2011,08,16,14,11,19.60
2011,08,16,14,12,19.60
2011,08,16,14,13,19.60
2011,08,16,14,14,19.50
2011,08,16,14,15,19.50
2011,08,16,14,16,19.40
2011,08,16,14,17,19.40
2011,08,16,14,18,19.30
2011,08,16,14,19,19.30
2011,08,16,14,20,19.40
2011,08,16,14,21,19.50
2011,08,16,14,22,19.60
2011,08,16,14,23,19.70
2011,08,16,14,24,19.90
2011,08,16,14,25,19.90
2011,08,16,14,26,20.10
2011,08,16,14,27,20.20
2011,08,16,14,28,20.20
2011,08,16,14,29,20.20
2011,08,16,14,30,20.20
2011,08,16,14,31,20.10
2011,08,16,14,32,20.00
2011,08,16,14,33,19.90
2011,08,16,14,34,19.80
2011,08,16,14,35,19.80
2011,08,16,14,36,19.70
2011,08,16,14,37,19.70
2011,08,16,14,38,19.60
2011,08,16,14,39,19.60
2011,08,16,14,40,19.50
2011,08,16,14,41,19.40
2011,08,16,14,42,19.40
2011,08,16,14,43,19.40
2011,08,16,14,44,19.50
2011,08,16,14,45,19.60
2011,08,16,14,46,19.70
2011,08,16,14,47,19.80
2011,08,16,14,48,19.90
2011,08,16,14,49,19.90
2011,08,16,14,50,19.90
2011,08,16,14,51,19.90
2011,08,16,14,52,19.90
2011,08,16,14,53,19.90
2011,08,16,14,54,20.00
2011,08,16,14,55,20.10
2011,08,16,14,56,20.10
2011,08,16,14,57,20.20
2011,08,16,14,58,20.30
2011,08,16,14,59,20.30
2011,08,16,15,00,20.30
2011,08,16,15,01,20.30
2011,08,16,15,02,20.20
2011,08,16,15,03,20.20
2011,08,16,15,04,20.20
2011,08,16,15,05,20.20
2011,08,16,15,06,20.20
2011,08,16,15,07,20.30
2011,08,16,15,08,20.30
2011,08,16,15,09,20.20
2011,08,16,15,10,20.20
2011,08,16,15,11,20.20
2011,08,16,15,12,20.20
2011,08,16,15,13,20.20
2011,08,16,15,14,20.20
2011,08,16,15,15,20.30
2011,08,16,15,16,20.30
2011,08,16,15,17,20.40
2011,08,16,15,18,20.50
2011,08,16,15,19,20.50
2011,08,16,15,20,20.60
2011,08,16,15,21,20.60
2011,08,16,15,22,20.70
2011,08,16,15,23,20.70
2011,08,16,15,24,20.70
2011,08,16,15,25,20.70
2011,08,16,15,26,20.60
2011,08,16,15,27,20.60
2011,08,16,15,28,20.60
2011,08,16,15,29,20.60
2011,08,16,15,30,20.60
2011,08,16,15,31,20.70
2011,08,16,15,32,20.80
2011,08,16,15,33,20.90
2011,08,16,15,34,20.90
2011,08,16,15,35,20.90
2011,08,16,15,36,20.90
2011,08,16,15,37,20.80
2011,08,16,15,38,20.80
2011,08,16,15,39,20.80
2011,08,16,15,40,20.80
2011,08,16,15,41,20.80
2011,08,16,15,42,20.90
2011,08,16,15,43,21.00
2011,08,16,15,44,21.10
2011,08,16,15,45,21.20
2011,08,16,15,46,21.40
2011,08,16,15,47,21.50
2011,08,16,15,48,21.60
2011,08,16,15,49,21.60
2011,08,16,15,50,21.70
2011,08,16,15,51,21.80
2011,08,16,15,52,21.90
2011,08,16,15,53,22.00
2011,08,16,15,54,22.10
2011,08,16,15,55,22.20
2011,08,16,15,56,22.20
2011,08,16,15,57,22.30
2011,08,16,15,58,22.30
2011,08,16,15,59,22.40
2011,08,16,16,00,22.50
2011,08,16,16,01,22.50
2011,08,16,16,02,22.60
2011,08,16,16,03,22.60
2011,08,16,16,04,22.70
2011,08,16,16,05,22.70
2011,08,16,16,06,22.70
2011,08,16,16,07,22.60
2011,08,16,16,08,22.50
2011,08,16,16,09,22.50
2011,08,16,16,10,22.40
2011,08,16,16,11,22.40
2011,08,16,16,12,22.40
2011,08,16,16,13,22.30
2011,08,16,16,14,22.40
2011,08,16,16,15,22.40
2011,08,16,16,16,22.50
2011,08,16,16,17,22.60
2011,08,16,16,18,22.70
2011,08,16,16,19,22.80
2011,08,16,16,20,22.80
2011,08,16,16,21,22.90
2011,08,16,16,22,22.90
2011,08,16,16,23,22.90
2011,08,16,16,24,22.90
2011,08,16,16,25,22.90
2011,08,16,16,26,22.90
2011,08,16,16,27,22.90
2011,08,16,16,28,23.00
2011,08,16,16,29,23.00
2011,08,16,16,30,23.10
2011,08,16,16,31,23.10
2011,08,16,16,32,23.10
2011,08,16,16,33,23.10
2011,08,16,16,34,23.10
2011,08,16,16,35,23.10
2011,08,16,16,36,23.00
2011,08,16,16,37,22.90
2011,08,16,16,38,22.90
2011,08,16,16,39,22.90
2011,08,16,16,40,22.90
2011,08,16,16,41,22.80
2011,08,16,16,42,22.70
2011,08,16,16,43,22.60
2011,08,16,16,44,22.50
2011,08,16,16,45,22.50
2011,08,16,16,46,22.50
2011,08,16,16,47,22.40
2011,08,16,16,48,22.50
2011,08,16,16,49,22.60
2011,08,16,16,50,22.60
2011,08,16,16,51,22.60
2011,08,16,16,52,22.70
2011,08,16,16,53,22.70
2011,08,16,16,54,22.60
2011,08,16,16,55,22.50
2011,08,16,16,56,22.30
2011,08,16,16,57,22.30
2011,08,16,16,58,22.20
2011,08,16,16,59,22.20
2011,08,16,17,00,22.20
2011,08,16,17,01,22.20
2011,08,16,17,02,22.20
2011,08,16,17,03,22.20
2011,08,16,17,04,22.20
2011,08,16,17,05,22.20
2011,08,16,17,06,22.10
2011,08,16,17,07,22.10
2011,08,16,17,08,22.00
2011,08,16,17,09,21.90
2011,08,16,17,10,21.90
2011,08,16,17,11,21.90
2011,08,16,17,12,21.90
2011,08,16,17,13,21.80
2011,08,16,17,14,21.90
2011,08,16,17,15,21.90
2011,08,16,17,16,21.90
2011,08,16,17,17,22.00
2011,08,16,17,18,21.90
2011,08,16,17,19,21.90
2011,08,16,17,20,21.90
2011,08,16,17,21,22.00
2011,08,16,17,22,22.00
2011,08,16,17,23,22.00
2011,08,16,17,24,22.00
2011,08,16,17,25,22.00
2011,08,16,17,26,22.00
2011,08,16,17,27,22.00
2011,08,16,17,28,22.00
2011,08,16,17,29,22.00
2011,08,16,17,30,22.10
2011,08,16,17,31,22.00
2011,08,16,17,32,22.00
2011,08,16,17,33,21.90
2011,08,16,17,34,21.80
2011,08,16,17,35,21.70